Regional Weather Roundup
Issued by NWS

Home | Current Version | Previous Version | Graphics & Text | Print | Product List | Glossary On
Versions: 1 2 3 4 5 6 7 8 9 10 11 12 13 14 15 16 17 18 19 20 21 22 23 24 25 26 27 28 29 30 31 32 33 34 35 36 37 38 39 40 41 42 43 44 45 46 47 48 49 50
000
ASUS43 KDTX 251510
RWRMI
MICHIGAN HOURLY REGIONAL WEATHER ROUNDUP
NATIONAL WEATHER SERVICE DETROIT/PONTIAC MI
1000 AM EST SUN JAN 25 2015

NOTE: "FAIR" INDICATES FEW OR NO CLOUDS BELOW 12,000 FEET WITH NO
SIGNIFICANT WEATHER AND/OR OBSTRUCTION TO VISIBILITY.

MIZ047>049-052>055-059>063-066>070-074>076-081>083-251600-
SOUTHEAST LOWER MICHIGAN

CITY           SKY/WX    TMP DP  RH WIND       PRES   REMARKS
ADRIAN         LGT SNOW  25  22  88 E18       29.85R FOG     WCI  11
ALMA           MOSUNNY   17  12  79 NE14      29.92R WCI   3
ANN ARBOR      CLOUDY    25  16  68 NE10G20   29.86R WCI  15
BAD AXE        PTSUNNY   18  11  76 NE12      29.93S WCI   5
CARO           PTSUNNY   20  11  69 CALM      29.92R
DETROIT CITY   CLOUDY    26  16  65 NE10      29.89R WCI  16
DETROIT        CLOUDY    24  16  71 N15G21    29.88R WCI  11
FLINT          PTSUNNY   23  13  65 E18       29.90R WCI   9
GROSSE ILE     CLOUDY    27  18  69 NE22      29.86R WCI  12
HILLSDALE      LGT SNOW  31  30  96 E14G20    29.79R WCI  20
HOWELL         CLOUDY    22  15  74 NE12G18   29.85S WCI  11

CITY           SKY/WX    TMP DP  RH WIND       PRES   REMARKS
JACKSON        LGT SNOW  26  20  77 NE13      29.83R WCI  15
LAMBERTVILLE   LGT SNOW  28  23  80 NE6G16    29.86R WCI  22
LANSING        CLOUDY    21  15  78 NE16G22   29.88R WCI   7
LAPEER         CLOUDY    21  14  75 NE12      29.90R WCI   9
MASON          CLOUDY    23  16  74 NE15G21   29.86R WCI  10
MONROE         CLOUDY    27  19  74 NE14G21   29.85R WCI  15
MT. CLEMENS    CLOUDY    25  16  69 N15G22    29.87R WCI  12
PONTIAC        CLOUDY    21  13  71 NE12        N/A  WCI   9
PORT HOPE        N/A     20  11  68 NE18      29.93S WCI   5
PORT HURON     CLOUDY    23  16  74 NE9G18    29.90R WCI  13
TRI CITIES     PTSUNNY   19  11  70 NE18      29.94R WCI   4
TROY           CLOUDY    25  16  68 NE14      29.90R WCI  13
SAGINAW HB     CLOUDY    19  14  79 N17       29.93R WCI   4
$$
MIZ043>046-050>051-056>058-064>065-071>073-077>080-251600-
SOUTHWEST LOWER MICHIGAN

CITY           SKY/WX    TMP DP  RH WIND       PRES   REMARKS
BATTLE CREEK   FLURRIES  27  19  72 E15G22    29.82R WCI  15
BENTON HARBOR  LGT SNOW  31  28  89 NE14G22   29.79R FOG     WCI  21
BIG RAPIDS     PTSUNNY   15  10  82 NE8       29.90R WCI   4
COLDWATER      FLURRIES  29  27  92 NE14      29.79R WCI  18
FREMONT        FAIR      19   9  64 NE13      29.89R WCI   6
HOLLAND        CLOUDY    28  18  66 E15G25    29.84R WCI  16
GRAND RAPIDS   PTSUNNY   23  15  71 E21       29.87R WCI   8
IONIA          CLOUDY    22  16  78 NE13G21   29.87R WCI  10
KALAMAZOO      FLURRIES  27  20  75 NE13G21   29.82R WCI  16
LUDINGTON      MOSUNNY   18   4  54 E9        29.94R WCI   7
MARSHALL       LGT SNOW  25  20  80 NE8       29.82R WCI  16
MOUNT PLEASANT MOSUNNY   18  10  72 NE13      29.93R WCI   4
MUSKEGON       PTSUNNY   23  11  60 NE12      29.88R WCI  12
SOUTH HAVEN    CLOUDY    30  24  78 E13G18    29.80R WCI  20
$$
MIZ016>042-251600-
NORTHERN LOWER MICHIGAN

CITY           SKY/WX    TMP DP  RH WIND       PRES   REMARKS
ALPENA         MOSUNNY   12   4  70 NE13      30.00R WCI  -3
BEAVER ISLAND  MOSUNNY    6  -3  66 CALM      30.02R
BELLAIRE       MOSUNNY    8   1  72 N3        30.01R
CADILLAC       PTSUNNY    8   3  79 NE10G16   29.89R WCI  -6
CHARLEVOIX     MOSUNNY    8   1  72 E9        30.03R WCI  -6
FRANKFORT      MOSUNNY   12   3  66 E7        29.98R WCI   2
GAYLORD        MOSUNNY    7   3  84 NE9       29.92R WCI  -7
GRAYLING       MOSUNNY    3  -1  85 NE6       29.94S WCI  -8
HARBOR SPRINGS MOSUNNY    9   0  68 NE6       30.00R WCI  -1
HOUGHTON LAKE  MOSUNNY    9   3  77 NE9G18    29.93R WCI  -4
MANISTEE       MOSUNNY   12   1  62 E14G21    29.95R WCI  -3
OSCODA         CLOUDY    17  10  73 NE12G21   29.96R WCI   4
PELLSTON       MOSUNNY    3  -3  76 N3        30.02R
ROGERS CITY    MOSUNNY   12   7  79 NE10      30.02R WCI  -1
TRAVERSE CITY  PTSUNNY    9   2  73 E7        29.99R WCI  -2
$$
MIZ007>008-015-251600-
EASTERN UPPER MICHIGAN

CITY           SKY/WX    TMP DP  RH WIND       PRES   REMARKS
KINROSS        MOSUNNY    1  -6  71 N5        30.01R WCI  -8
MACKINAC ISLAN MOSUNNY    6  -2  68 NE8       30.01R WCI  -7
NEWBERRY       MOSUNNY    1  -2  85 NE5       30.00R WCI  -8
S. S. MARIE    MOSUNNY    1  -8  66 CALM      30.02R
MUNISING         N/A     18   9  68 NE8       30.02R WCI   8
$$
MIZ004>006-011>014-085-251600-
CENTRAL UPPER MICHIGAN

CITY           SKY/WX    TMP DP  RH WIND       PRES   REMARKS
MANISTIQUE     FLURRIES  10   6  84 NE3       30.02R
ESCANABA       CLOUDY    16   9  73 NE9       30.03R WCI   4
MENOMINEE      CLOUDY    16   7  67 E15       30.02R WCI   1
SAWYER-GWINN   LGT SNOW  14   9  79 NE13      29.97R WCI   0
$$
MIZ001>003-009>011-084-251600-
WESTERN UPPER MICHIGAN

CITY           SKY/WX    TMP DP  RH WIND       PRES   REMARKS
IRON MOUNTAIN  LGT SNOW  15   8  73 NE7       29.98R WCI   5
HOUGHTON       LGT SNOW  13   6  74 E7        30.02R WCI   3
COPPER HARBOR    N/A     16   7  67 NE8       30.06R WCI   5
IRONWOOD       CLOUDY    12   7  79 E8        29.98R WCI   1
$$

ABBREVIATIONS USED IN REMARKS
   TC - TEMPERATURE IN CELSIUS
  WCI - WIND CHILL INDEX
   HX - HEAT INDEX
  VSB - VISIBILITY



USA.gov is the U.S. government's official web portal to all federal, state and local government web resources and services.